SQ5GN-1 Weather Reports


Display with metric or nautical units.
time (UTC)temp
F
wind
direction
speed
MPH
gust
MPH
rain 1hr
in
rain 24hr
in
rain mn
in
humidity
%
barometer
mb
20260504045427 67 0.0 0.0 0.00 0.00 0.00 41 1015.0
20260504042922 65 0.0 0.0 0.00 0.00 0.00 46 1015.0
20260504040002 55 0.0 0.0 0.00 0.00 0.00 78 1015.0
20260504033604 54 0.0 0.0 0.00 0.00 0.00 83 1015.0
20260504030857 54 0.0 0.0 0.00 0.00 0.00 85 1015.0
20260504023924 54 0.0 0.0 0.00 0.00 0.00 86 1015.0
20260504021202 54 0.0 0.0 0.00 0.00 0.00 85 1015.0
20260504014722 55 0.0 0.0 0.00 0.00 0.00 83 1015.0
20260504012102 55 0.0 0.0 0.00 0.00 0.00 79 1015.0
20260504005325 56 0.0 0.0 0.00 0.00 0.00 77 1015.0
20260504002417 57 0.0 0.0 0.00 0.00 0.00 74 1015.0
20260503235837 57 0.0 0.0 0.00 0.00 0.00 74 1015.0
20260503232944 58 0.0 0.0 0.00 0.00 0.00 68 1015.0
20260503230033 59 0.0 0.0 0.00 0.00 0.00 63 1015.0
20260503223132 60 0.0 0.0 0.00 0.00 0.00 63 1015.0
20260503220732 60 0.0 0.0 0.00 0.00 0.00 61 1015.0
20260503213939 61 0.0 0.0 0.00 0.00 0.00 58 1015.0
20260503211215 62 0.0 0.0 0.00 0.00 0.00 54 1015.0
20260503204629 62 0.0 0.0 0.00 0.00 0.00 52 1015.0
20260503201957 63 0.0 0.0 0.00 0.00 0.00 47 1015.0
20260503195522 64 0.0 0.0 0.00 0.00 0.00 46 1015.0
20260503192742 66 0.0 0.0 0.00 0.00 0.00 42 1015.0
20260503190205 67 0.0 0.0 0.00 0.00 0.00 37 1015.0
20260503183712 70 0.0 0.0 0.00 0.00 0.00 32 1015.0
20260503181112 72 0.0 0.0 0.00 0.00 0.00 27 1014.0
20260503174121 75 0.0 0.0 0.00 0.00 0.00 24 1014.0
20260503171336 77 0.0 0.0 0.00 0.00 0.00 23 1014.0